sat.trackr.live / text

‹ back to catalog

STARLINK-5427

NORAD 54853 · 2022-177AK

PAYLOAD ACTIVE UNKNOWN

§ Identity

Operator
Country
US
Launch date
2022-12-28
Launch site
AFETR
Launch vehicle
Mass (kg)
RCS (m²)

Purposes: comms

External: N2YO · Heavens-Above · Gunter

§ Orbital elements

Epoch: 2026-05-25T03:08:52.509120Z

Period
94.27 min
Inclination
43.0066°
Eccentricity
0.0001384
Mean motion
15.27559995 rev/d
Perigee alt
482.2 km
Apogee alt
484.1 km
Semi-major
6,861.2 km
B*
-3.1693e-5
RAAN
49.6861°
Arg perigee
249.8670°
Mean anomaly
110.2033°
Rev number
18,878

§ Raw data

STARLINK-54271 54853U 22177AK  26145.13116330 -.00001134  00000+0 -31693-4 0  99962 54853  43.0066  49.6861 0001384 249.8670 110.2033 15.27559995188781

JSON: /api/v1/satellites/54853 · /tle

For live sub-satellite position, see the globe view (requires WebGL).

§ Visibility from observer

Set your observer location to see the next 7 days of passes ≥ 10°. The values pass through the URL so the page stays shareable.

No JS? Fill the form by hand. The geolocation button needs JavaScript.